#timestamp,LO_Frequency,Hit,StdDev 
1622919615.3,286046999.8,N
1622919635.1,286047000.9,N
1622919655.9,286047002.3,N
1622919675.7,286047007.6,Y
1622919695.6,286047005.0,P
1622919715.4,286047001.9,N
1622919735.2,286047000.3,N
1622919755.1,286047002.1,N
1622919756.0,286047002.1,N
1622919775.8,286047002.2,N
1622919795.7,286046998.4,N
1622919815.5,286047000.9,N
1622919835.3,286046999.2,N
1622919855.2,286046995.1,N
1622919875.9,286046995.7,N
1622919895.7,286046996.8,N
1622919915.6,286046998.7,N
1622919935.4,286047001.6,N
1622919955.2,286047003.6,N
1622919975.1,286047000.1,N
1622919976.0,286047000.1,N
1622919995.8,286047000.8,N
1622920015.7,286046998.6,N
1622920035.5,286047001.6,N
1622920055.3,286047004.6,N
1622920075.2,286047003.3,N
1622920095.0,286047002.0,N
1622920095.9,286047002.0,N
1622920115.7,286047001.5,N
1622920135.6,286047005.7,N
1622920155.4,286047007.1,N
1622920175.3,286047004.8,N
1622920195.1,286047003.1,N
1622920196.0,286047003.1,N
1622920215.8,286047001.8,N
1622920235.7,286047001.3,N
1622920255.5,286047001.1,N
1622920275.3,286046999.0,N
1622920295.2,286046999.3,N
1622920315.0,286046997.2,N
1622920315.9,286046997.2,N
1622920335.8,286047000.7,N
1622920355.6,286046999.1,N
1622920375.4,286046997.3,N
1622920395.3,286046995.5,N
1622920415.1,286046995.1,N
1622920435.8,286046996.7,N
1622920455.7,286046999.3,N
1622920475.5,286046999.4,N
1622920495.4,286047001.2,N
1622920515.2,286046999.4,N
1622920535.0,286046998.8,N
1622920535.9,286046998.8,N
1622920555.8,286046996.7,N
1622920575.6,286046999.3,N
1622920595.4,286046998.2,N
1622920615.3,286046997.1,N
1622920635.1,286046997.4,N
1622920655.9,286046999.7,N
1622920675.7,286047005.2,N
1622920695.5,286047004.6,N
1622920715.4,286047005.4,N
1622920735.2,286047004.9,N
1622920755.0,286047007.5,N
1622920755.9,286047007.5,N
1622920775.8,286047004.9,N
1622920795.6,286047004.1,N
1622920815.4,286047004.4,N
1622920835.3,286047000.1,N
1622920855.1,286047001.2,N
1622920875.9,286047000.3,N
1622920895.7,286047000.2,N
1622920915.5,286047002.8,N
1622920935.4,286047000.8,N
1622920955.2,286047000.2,N
1622920975.0,286047000.1,N
1622920975.9,286047000.1,N
1622920995.8,286047001.8,N
1622921015.6,286046998.4,N
1622921035.5,286046996.6,N
1622921055.3,286046998.6,N
1622921075.1,286046998.6,N
1622921095.9,286047001.2,N
1622921115.7,286047001.7,N
1622921135.5,286047002.2,N
1622921155.4,286047000.9,N
1622921175.2,286046999.2,N
1622921195.1,286046999.4,N
1622921196.0,286046999.4,N
1622921215.8,286046999.1,N
1622921235.6,286046997.4,N
1622921255.5,286046999.1,N
1622921275.3,286046999.0,N
1622921295.1,286047001.1,N
1622921315.9,286046996.5,N
1622921335.7,286046994.9,N
1622921355.6,286046995.0,N
1622921375.4,286046996.6,N
1622921395.2,286046995.2,N
1622921415.1,286046996.7,N
1622921416.0,286046996.7,N
1622921435.8,286046999.4,N
1622921455.6,286046997.3,N
1622921475.5,286046994.9,N
1622921495.3,286046998.5,N
1622921515.2,286046999.3,N
1622921535.9,286046996.5,N
1622921555.7,286046997.1,N
1622921575.6,286046999.6,N
1622921595.4,286046996.9,N
1622921615.2,286046997.0,N
1622921635.1,286046997.7,N
1622921636.0,286046997.7,N
1622921655.8,286046998.0,N
1622921675.7,286046998.3,N
1622921695.5,286046998.6,N
1622921715.3,286046999.2,N
1622921735.2,286046995.3,Y
1622921755.0,286046998.4,P
1622921755.9,286046998.4,P
1622921775.8,286046998.5,P
1622921795.6,286046998.5,Y
1622921815.4,286047004.2,P
1622921835.3,286047005.9,N
1622921855.1,286047007.2,N
1622921875.9,286047005.6,N
1622921895.7,286047003.8,N
1622921915.5,286047001.7,N
1622921935.4,286047002.1,N
1622921955.2,286047004.1,N
1622921975.0,286047002.3,N
1622921975.9,286047002.3,N
1622921995.8,286047001.6,N
1622922015.6,286047001.5,N
1622922035.4,286047004.3,N
1622922055.3,286047001.3,N
1622922075.1,286047000.0,N
1622922095.9,286046999.3,N
1622922115.7,286046999.4,N
1622922135.5,286046998.6,N
1622922155.4,286047000.5,N
1622922175.2,286047001.3,N
1622922195.0,286047004.2,N
1622922195.9,286047004.2,N
1622922215.8,286047003.7,N
1622922235.6,286047005.9,N
1622922255.5,286047003.3,N
1622922275.3,286047005.3,N
1622922295.1,286047003.3,N
1622922315.9,286047004.1,N
1622922335.7,286047001.6,N
1622922355.5,286047003.4,N
1622922375.4,286047000.9,N
1622922395.2,286047000.5,N
1622922415.1,286047001.1,N
1622922416.0,286047001.1,N
1622922435.8,286046999.1,N
1622922455.6,286046998.8,N
1622922475.5,286046996.9,N
1622922495.3,286046999.1,N
1622922515.1,286046997.8,N
1622922535.9,286047004.2,N
1622922555.7,286046996.8,N
1622922575.6,286047001.1,N
1622922595.4,286046998.4,N
1622922615.2,286047001.4,N
1622922635.1,286047003.9,N
1622922636.0,286047003.9,N
1622922655.8,286047004.3,N
1622922675.6,286047001.7,N
1622922695.5,286047001.7,N
1622922715.3,286047001.6,N
1622922735.2,286047002.1,N
1622922755.9,286047004.4,N
1622922775.7,286047001.0,N
1622922795.6,286047000.4,N
1622922815.4,286047001.6,N
1622922835.2,286047000.3,N
1622922855.1,286047002.8,N
1622922856.0,286047002.8,N
1622922875.8,286047001.4,N
1622922895.7,286047000.4,N
1622922915.5,286047000.0,N
1622922935.3,286047000.9,N
1622922955.2,286046999.8,N
1622922975.9,286047002.6,N
1622922995.7,286047004.0,N
1622923015.6,286047001.4,N
1622923035.4,286047002.1,N
1622923055.2,286046999.2,N
1622923075.1,286046998.5,N
1622923076.0,286046998.5,N
1622923095.8,286047002.6,N
1622923115.7,286047003.4,N
1622923135.5,286047007.9,Y
1622923155.3,286047008.2,P
1622923175.2,286047010.3,P
1622923195.0,286047009.3,N
1622923195.9,286047009.3,N
